Content
SEND FEEDBACK

United States of America Flag

KUAPUNI NEIGHBORHOOD PARK, HAWAII


Home > North America > United States > Hawaii
Elevation: 330 feet     Latitude: 21 28N     Longitude: 158 10W

WEATHER
 
SELECT A DAY
Number of Records: 234,118;   Date Range: 1/3/95 - 3/21/16
 
SHARE

PRINT THIS DATA

[ ← Previous Day ]
WEATHER ALMANAC - JANUARY 30, 2013
[ Next Day → ]
[ °C ]   °F
Weather ElementAverageHighLow
Temperature68.2 °F76.3 °F (12:55 pm)60.8 °F (6:55 am)
Dewpoint63.2 °F66.2 °F (2:59 pm)58.5 °F (6:55 am)
Humidity84.2 %93 % (10:55 pm)69 % (11:55 am)
Barometer30.02 in30.06 in (9:55 am)29.98 in (3:55 am)
Wind Speed5.4 mph11.5 mph (1:55 pm)
Weather ElementAverage
Visibility9.4 mi
Wind DirectionSSE (173.9 °)

Weather ElementTotal
Precipitation0.03 in
Cooling Degree Days3.6 (Base 65)
Growing Degree Days18.6 (Base 50)
Averaged from 36 records on January 30, 2013
WEATHER CONDITIONS BREAKOUT
WIND DIRECTION BREAKOUT
WEATHER BY HOUR - JANUARY 30, 2013
[ °C ]   °F
Local TimeTemperatureDewpointHumidityBarometerVisibilityWind DirectionWind SpeedGust SpeedPrecipitationEventsConditions
1:55 AM61.9 °F59.0 °F90 %30.00 in10.0 miNW (320°)5.8 mphClear
2:55 AM61.3 °F58.8 °F91 %29.99 in10.0 miNW (320°)4.6 mphClear
3:55 AM61.3 °F58.6 °F91 %29.98 in10.0 miNW (320°)4.6 mphClear
4:55 AM61.2 °F58.8 °F92 %29.99 in10.0 miNW (320°)4.6 mphClear
5:55 AM61.7 °F59.4 °F92 %30.00 in10.0 miNW (320°)5.8 mphClear
6:55 AM60.8 °F58.5 °F92 %30.01 in10.0 miNW (310°)4.6 mphClear
7:55 AM62.4 °F59.7 °F91 %30.03 in10.0 miNNW (330°)4.6 mphClear
8:55 AM67.5 °F63.3 °F87 %30.05 in10.0 miCalmClear
9:55 AM71.6 °F63.0 °F74 %30.06 in10.0 miCalmClear
10:55 AM73.0 °F63.5 °F72 %30.06 in10.0 miCalmClear
11:55 AM75.4 °F64.6 °F69 %30.04 in10.0 miVariable4.6 mphPartly Cloudy
12:55 PM76.3 °F65.7 °F70 %30.01 in10.0 miNW (320°)10.4 mphScattered Clouds
1:55 PM75.4 °F65.5 °F71 %30.00 in10.0 miWNW (300°)11.5 mphPartly Cloudy
2:21 PM73.4 °F64.4 °F73 %30.00 in10.0 miEast (80°)9.2 mphLight Drizzle
2:25 PM71.6 °F64.4 °F78 %30.00 in10.0 miEast (80°)10.4 mphLight Drizzle
2:51 PM69.8 °F64.4 °F83 %30.00 in10.0 miENE (60°)8.1 mphLight Drizzle
2:53 PM69.8 °F64.4 °F83 %30.00 in8.0 miNE (50°)6.9 mphRainHeavy Rain
2:55 PM70.0 °F65.3 °F85 %30.00 in6.0 miENE (60°)6.9 mph0.02 inRainHeavy Rain
2:56 PM69.8 °F64.4 °F83 %30.00 in6.0 miENE (60°)6.9 mphRainHeavy Rain
2:59 PM69.8 °F66.2 °F88 %30.00 in5.0 miENE (60°)5.8 mphRainRain
3:00 PM69.8 °F66.2 °F88 %30.00 in5.0 miENE (60°)5.8 mphRainRain
3:20 PM69.8 °F66.2 °F88 %30.00 in10.0 miEast (80°)6.9 mphLight Drizzle
3:35 PM69.8 °F66.2 °F88 %30.00 in10.0 miEast (90°)6.9 mphScattered Clouds
3:55 PM70.2 °F65.8 °F86 %30.00 in10.0 miEast (80°)6.9 mph0.01 inMostly Cloudy
4:20 PM71.6 °F66.2 °F83 %30.00 in10.0 miENE (70°)5.8 mphMostly Cloudy
4:55 PM70.7 °F64.9 °F82 %30.00 in10.0 miCalmOvercast
4:56 PM71.6 °F64.4 °F78 %30.00 in10.0 miCalmOvercast
5:17 PM69.8 °F64.4 °F83 %30.01 in10.0 miNNE (20°)3.5 mphOvercast
5:34 PM69.8 °F64.4 °F83 %30.01 in10.0 miNorth (360°)5.8 mphOvercast
5:55 PM70.0 °F64.2 °F82 %30.01 in10.0 miNNW (340°)5.8 mphOvercast
6:55 PM68.9 °F63.5 °F83 %30.02 in10.0 miNNW (330°)5.8 mphOvercast
7:55 PM67.5 °F62.8 °F85 %30.04 in10.0 miNNW (330°)5.8 mphClear
8:55 PM63.9 °F61.0 °F90 %30.06 in10.0 miWNW (290°)5.8 mphClear
9:55 PM63.1 °F60.4 °F91 %30.06 in10.0 miWest (280°)5.8 mphClear
10:55 PM62.8 °F60.8 °F93 %30.06 in10.0 miNW (310°)4.6 mphClear
11:55 PM63.0 °F60.6 °F92 %30.05 in10.0 miNW (310°)3.5 mphClear
Hourly data recorded from PHHI, located miles away from Kuapuni Neighborhood Park, Hawaii




STORIES FROM OUR PARTNERS